Location: Poughquag
(41.6090°N, 73.6820°W)
Time: 03:31:41
(UTC-04:00)

Vanguard 2 Rocket - Pass Details

Date: 30 May 2020
Orbit: 556 x 3324 km, 32.9° (Epoch: 06 July)

Event Time Altitude Azimuth Distance (km) Brightness Sun altitude
Rises 00:21:22 0° 269° (W) 6,867 11.5 -26.2°
Reaches altitude 10° 00:31:18 10° 243° (WSW) 6,212 10.9 -26.4°
Maximum altitude 00:36:34 12° 228° (SW) 6,132 10.7 -26.4°
Enters shadow 00:39:01 11° 220° (SW) 6,161 10.7 -26.5°
Drops below altitude 10° 00:41:55 10° 212° (SSW) 6,246 - -26.5°
Sets 00:52:16 0° 185° (S) 6,943 - -26.6°
